Погода в Леоне

Мексика     21°07′17″N   101°40′17″W
темп.,
°C
ветер,
м/с
пор.,
м/с
влажн.,
%
обл.,
%
осадки,
мм/ч
давл.,
гПа
погр.,
м
13 апреля, вт
вт1301:00+18зюз12285 0.0 101281
04:00+16ссв003116 0.0 101240
07:00+15ю113470 0.0 101414
10:00+21ююв112453 0.0 1014434
13:00+28зюз23155 0.0 10102550
16:00+32зсз13116 0.0 10054168
19:00+31зюз641193 0.0 10043456
22:00+23ююз383099 0.0 1011274
14 апреля, ср
ср1401:00+18юв33412 0.0 101464
04:00+16ю11505 0.0 101537
07:00+15юв11565 0.0 101632
10:00+22зюз12340 0.0 1015512
13:00+29юз22165 0.0 10112682
16:00+33ю141298 0.0 10064413
19:00+28всв451998 0.1 1007525
22:00+24ю472950 0.1 1011230
15 апреля, чт
чт1501:00+19вюв35395 0.1 1015134
04:00+16ю11530 0.0 101434
07:00+15ссв00500 0.0 101428
10:00+22з23270 0.0 1014684
13:00+29з33130 0.0 10102619
16:00+32сз241011 0.0 10054394
19:00+31зюз6511100 0.0 10044185
22:00+24з481526 0.0 1008149
16 апреля, пт
пт1601:00+20ссз34210 0.0 101178
04:00+17юз12290 0.0 101148
07:00+15ю11354 0.0 101328
10:00+21юз12240 0.0 1012518
13:00+30зюз46100 0.0 10072819
16:00+33зюз7780 0.0 10033818
19:00+31зюз6780 0.0 10023988
22:00+24зюз715150 0.0 1007515
17 апреля, сб
сб1701:00+19з34190 0.0 101167
04:00+16ююз11210 0.0 101133
07:00+14ю11280 0.0 101227
10:00+21ююв22190 0.0 1012488
13:00+30юз5790 0.0 10072997
16:00+32зюз7871 0.0 10043995
19:00+30зюз8865 0.0 10033507
22:00+22зюз615134 0.0 1009457